x

La Perouse Bank (46206) Wave Buoy

1:00 - Sat 1st Oct 2016 All times are PDT. -7 hours from GMT.

  • Sig Wave height 6.2ft
  • Peak Period 8s
  • Wind
    18mph, 22mph gusts
  • Sea Temp 55°f
  • Air Temp 54°f
  • Sea Pressure 1008.3mb
  • La Perouse Bank
  • La Perouse Bank

More Historic Weather Station data

Upgrade to MSW Pro to gain access to the past 30 days of data for over 8000 Wavebouys and Weather Stations around the globe.

Join Pro

Comparision Forecast

View Surf forecast
   
sam. 10/01 1:00 6ft 8s 18 22 mph 1008.3mb 55f 54f
12:00 4.5ft 8s 22 27 mph 1008.7mb 55f 50f
11:00 3.5ft 9s 20 22 mph 1009.1mb 54f 52f
10:00 3.5ft 9s 18 20 mph 1009.5mb 54f 52f
9:00 3.5ft 9s 18 22 mph 1009.8mb 55f 52f
8:00 3.5ft 9s 16 18 mph 1010mb 56f 52f
7:00 4.5ft 8s 9 13 mph 1010.5mb 56f 53f
6:00 4.5ft 9s 11 13 mph 1010.8mb 56f 53f
5:00 4ft 9s 11 16 mph 1011.1mb 56f 53f
4:00 3.5ft 9s 16 18 mph 1011.6mb 56f 52f
3:00 4ft 10s 16 18 mph 1012.1mb 55f 53f
2:00 4.5ft 10s 13 16 mph 1012.6mb 56f 53f
1:00 4ft 9s 11 13 mph 1013.2mb 56f 53f
12:00 3.5ft 10s 7 11 mph 1013.4mb 56f 53f
ven. 09/30 11:00 3.5ft 10s 4 7 mph 1013.9mb 55f 52f
10:00 3.5ft 10s 4 7 mph 1014.1mb 56f 52f
9:00 4ft 10s 2 4 mph 1014.2mb 56f 52f
8:00 4.5ft 10s 4 7 mph 1014.6mb 56f 52f
7:00 4.5ft 10s 2 4 mph 1015mb 57f 51f
6:00 4ft 11s  -  2 mph 1015.3mb 57f 51f
5:00 4.5ft 9s 2 4 mph 1015.5mb 57f 52f
3:00 4.5ft 9s 2 4 mph 1015.8mb 58f 55f
2:00 4.5ft 9s 4 7 mph 1016.1mb 58f 54f
1:00 3.5ft 10s 4
mph
1016.4mb 58f 54f
12:00 3.5ft 10s 7 9 mph 1016.9mb 58f 54f
11:00 3.5ft 10s 4 7 mph 1017mb 57f 54f
10:00 4ft 10s 4
mph
1017.3mb 57f 54f
9:00 4ft 10s 7 9 mph 1017.4mb 57f 54f
8:00 4.5ft 11s 4 7 mph 1017.5mb 57f 54f
7:00 4.5ft 11s 4 7 mph 1017.6mb 57f 53f
6:00 4.5ft 10s 7 9 mph 1017.7mb 57f 53f
5:00 4.5ft 12s 2 4 mph 1017.6mb 57f 54f
4:00 4.5ft 9s 4
mph
1017.7mb 57f 54f
3:00 4.5ft 9s 4 7 mph 1017.7mb 56f 54f
2:00 5ft 9s 7 9 mph 1017.7mb 56f 55f
1:00 4.5ft 9s 9 11 mph 1017.6mb 56f 55f
12:00 4.5ft 10s 11 13 mph 1017.8mb 57f 55f
jeu. 09/29 11:00 5.5ft 10s 11 13 mph 1018.1mb 57f 55f
10:00 5ft 10s 9 13 mph 1018.2mb 57f 55f
9:00 6ft 10s 9 13 mph 1018.6mb 57f 55f
8:00 5.5ft 10s 11 13 mph 1018.7mb 57f 55f
7:00 6ft 10s 9 11 mph 1018.9mb 57f 55f
6:00 5ft 11s 11 13 mph 1018.8mb 57f 56f
5:00 5ft 11s 11 13 mph 1019mb 58f 55f
4:00 4.5ft 10s 11 13 mph 1019.1mb 57f 56f
3:00 4.5ft 12s 11 13 mph 1019.2mb 58f 56f
2:00 4.5ft 8s 7 9 mph 1019.4mb 58f 55f
1:00 4.5ft 8s 7 9 mph 1019.5mb 58f 55f
12:00 4.5ft 10s 7 9 mph 1019.5mb 58f 54f
11:00 4.5ft 8s 7 9 mph 1019.6mb 57f 54f
10:00 4.5ft 8s 9 11 mph 1019.4mb 57f 54f
9:00 4ft 8s 9 11 mph 1019.2mb 56f 55f
8:00 3.5ft 8s 11 13 mph 1019mb 57f 54f
7:00 3.5ft 8s 11 13 mph 1018.9mb 57f 54f
6:00 3.5ft 8s 11 13 mph 1018.8mb 57f 54f
5:00 3.5ft 8s 11 13 mph 1018.6mb 57f 54f
4:00 3.5ft 8s 13 16 mph 1018.6mb 57f 54f
3:00 3.5ft 8s 13 16 mph 1018.6mb 57f 54f
2:00 3.5ft 8s 13 18 mph 1018.6mb 57f 54f
1:00 3.5ft 8s 16 18 mph 1018.5mb 57f 54f
12:00 3.5ft 8s 13 16 mph 1018.7mb 57f 54f
mer. 09/28 11:00 3.5ft 8s 13 16 mph 1019mb 57f 54f
10:00 3.5ft 8s 11 13 mph 1019.1mb 57f 54f
9:00 4.5ft 9s 16 20 mph 1019mb 57f 55f
8:00 4.5ft 8s 18 20 mph 1019.1mb 57f 55f
7:00 4.5ft 8s 20 22 mph 1019.2mb 57f 55f
6:00 4.5ft 7s 18 20 mph 1019.4mb 56f 55f
5:00 4.5ft 7s 18 22 mph 1019.5mb 56f 55f
4:00 4.5ft 8s 18 20 mph 1019.7mb 56f 55f
3:00 4.5ft 9s 13 18 mph 1020.2mb 56f 54f
2:00 4.5ft 8s 13 16 mph 1020.4mb 56f 54f
1:00 4.5ft 8s 13 16 mph 1020.7mb 56f 54f
12:00 4.5ft 8s 11 13 mph 1020.9mb 56f 53f
11:00 4.5ft 9s 13
mph
1020.8mb 56f 53f
10:00 5ft 7s 13 16 mph 1021mb 56f 53f
9:00 5ft 8s 16 18 mph 1020.9mb 56f 53f
8:00 5.5ft 8s 11 13 mph 1020.9mb 56f 53f
7:00 5.5ft 10s 13 18 mph 1020.9mb 56f 53f
6:00 6ft 8s 11 13 mph 1020.8mb 56f 53f
5:00 5.5ft 7s 13 16 mph 1020.9mb 56f 53f
4:00 5.5ft 7s 13 18 mph 1020.8mb 56f 54f
3:00 5.5ft 7s 11 13 mph 1021.1mb 56f 54f
2:00 6ft 10s 13 18 mph 1021.1mb 56f 54f
1:00 5.5ft 9s 13
mph
1021.4mb 55f 54f
12:00 6ft 7s 11 13 mph 1021.5mb 55f 54f
mar. 09/27 11:00 6ft 10s 13 18 mph 1021.3mb 55f 54f
10:00 6ft 10s 16 18 mph 1021.6mb 54f 54f